Date,TemperatureHighF,TemperatureAvgF,TemperatureLowF,DewpointHighF,DewpointAvgF,DewpointLowF,HumidityHigh,HumidityAvg,HumidityLow,PressureMaxIn,PressureMinIn,WindSpeedMaxMPH,WindSpeedAvgMPH,GustSpeedMaxMPH,PrecipitationSumIn
2013-3-1,36,33,29,-100,-100,-100,0,0,100,0.00,40.00,0,-999,0,0.00
2013-3-2,33,30,27,-100,-100,-100,0,0,100,0.00,40.00,0,-999,0,0.00
2013-3-3,43,33,21,-100,-100,-100,0,0,100,0.00,40.00,0,-999,0,0.00
2013-3-4,54,44,38,-100,-100,-100,0,0,100,0.00,40.00,0,-999,0,0.00
2013-3-5,49,39,32,-100,-100,-100,0,0,100,0.00,40.00,0,-999,0,0.00
2013-3-6,39,34,31,-100,-100,-100,0,0,100,0.00,40.00,0,-999,0,0.00
2013-3-7,47,36,25,-100,-100,-100,0,0,100,0.00,40.00,0,-999,0,0.00
2013-3-8,54,39,25,-100,-100,-100,0,0,100,0.00,40.00,0,-999,0,0.00
2013-3-9,68,54,43,-100,-100,-100,0,0,100,0.00,40.00,0,-999,0,0.00
2013-3-10,66,59,51,-100,-100,-100,0,0,100,0.00,40.00,0,-999,0,0.00
2013-3-11,53,43,37,-100,-100,-100,0,0,100,0.00,40.00,0,-999,0,0.00
2013-3-12,51,40,31,-100,-100,-100,0,0,100,0.00,40.00,0,-999,0,0.00
2013-3-13,42,36,29,-100,-100,-100,0,0,100,0.00,40.00,0,-999,0,0.00
2013-3-14,46,33,23,-100,-100,-100,0,0,100,0.00,40.00,0,-999,0,0.00
2013-3-15,76,49,33,-100,-100,-100,0,0,100,0.00,40.00,0,-999,0,0.00
2013-3-16,69,57,42,-100,-100,-100,0,0,100,0.00,40.00,0,-999,0,0.00
2013-3-17,41,38,34,-100,-100,-100,0,0,100,0.00,40.00,0,-999,0,0.00
2013-3-18,50,44,39,-100,-100,-100,0,0,100,0.00,40.00,0,-999,0,0.00
2013-3-19,51,42,32,-100,-100,-100,0,0,100,0.00,40.00,0,-999,0,0.00
2013-3-20,37,35,27,-100,-100,-100,0,0,100,0.00,40.00,0,-999,0,0.00
2013-3-21,41,32,25,-100,-100,-100,0,0,100,0.00,40.00,0,-999,0,0.00
2013-3-22,46,39,35,-100,-100,-100,0,0,100,0.00,40.00,0,-999,0,0.00
2013-3-23,58,49,41,-100,-100,-100,0,0,100,0.00,40.00,0,-999,0,0.00
2013-3-24,50,38,32,-100,-100,-100,0,0,100,0.00,40.00,0,-999,0,0.00
2013-3-25,37,34,32,-100,-100,-100,0,0,100,0.00,40.00,0,-999,0,0.00
2013-3-26,43,36,32,-100,-100,-100,0,0,100,0.00,40.00,0,-999,0,0.00
2013-3-27,53,38,26,-100,-100,-100,0,0,100,0.00,40.00,0,-999,0,0.00
2013-3-28,59,46,39,-100,-100,-100,0,0,100,0.00,40.00,0,-999,0,0.00
2013-3-29,58,50,45,-100,-100,-100,0,0,100,0.00,40.00,0,-999,0,0.00
2013-3-30,58,49,40,-100,-100,-100,0,0,100,0.00,40.00,0,-999,0,0.00
2013-3-31,69,59,51,-100,-100,-100,0,0,100,0.00,40.00,0,-999,0,0.00